"Period start","avg(HW err(1)/warn(2) (#))","avg(Visibility (m))","avg(Weather code (#))","avg(Precip intensity (mm/h))","min(HW err(1)/warn(2) (#))","max(HW err(1)/warn(2) (#))","std(HW err(1)/warn(2) (#))","med(HW err(1)/warn(2) (#))","min(Visibility (m))","max(Visibility (m))","std(Visibility (m))","med(Visibility (m))","min(Weather code (#))","max(Weather code (#))","std(Weather code (#))","med(Weather code (#))","min(Precip intensity (mm/h))","max(Precip intensity (mm/h))","std(Precip intensity (mm/h))","med(Precip intensity (mm/h))"
2013-09-22 00:00:00,2,48691,0,0.00,2,2,0,2,45563,50000,1695,50000,0,0,0,0,0.00,0.00,0.00,0.00
2013-09-22 00:10:00,2,49581,0,0.00,2,2,0,2,47391,50000,832,50000,0,0,0,0,0.00,0.00,0.00,0.00
2013-09-22 00:20:00,2,49319,0,0.00,2,2,0,2,46531,50000,1321,50000,0,0,0,0,0.00,0.00,0.00,0.00
2013-09-22 00:30:00,2,48910,0,0.00,2,2,0,2,46093,50000,1483,50000,0,0,0,0,0.00,0.00,0.00,0.00
2013-09-22 00:40:00,2,48250,0,0.00,2,2,0,2,42774,50000,2345,49586,0,0,0,0,0.00,0.00,0.00,0.00
2013-09-22 00:50:00,2,46480,0,0.00,2,2,0,2,37935,50000,4062,47812,0,0,0,0,0.00,0.00,0.00,0.00
2013-09-22 01:00:00,2,49878,0,0.00,2,2,0,2,49387,50000,237,50000,0,0,0,0,0.00,0.00,0.00,0.00
2013-09-22 01:10:00,2,49786,0,0.00,2,2,0,2,47860,50000,642,50000,0,0,0,0,0.00,0.00,0.00,0.00
2013-09-22 01:20:00,2,48560,0,0.00,2,2,0,2,43156,50000,2356,50000,0,0,0,0,0.00,0.00,0.00,0.00
2013-09-22 01:30:00,2,48774,0,0.00,2,2,0,2,42476,50000,2529,50000,0,0,0,0,0.00,0.00,0.00,0.00
2013-09-22 01:40:00,2,49567,0,0.00,2,2,0,2,47592,50000,705,49854,0,0,0,0,0.00,0.00,0.00,0.00
2013-09-22 01:50:00,2,47510,0,0.00,2,2,0,2,39960,50000,3266,49032,0,0,0,0,0.00,0.00,0.00,0.00
2013-09-22 02:00:00,2,49684,0,0.00,2,2,0,2,47691,50000,711,50000,0,0,0,0,0.00,0.00,0.00,0.00
2013-09-22 02:10:00,2,49276,0,0.00,2,2,0,2,44780,50000,1596,50000,0,0,0,0,0.00,0.00,0.00,0.00
2013-09-22 02:20:00,2,48846,0,0.00,2,2,0,2,40769,50000,2779,50000,0,0,0,0,0.00,0.00,0.00,0.00
2013-09-22 02:30:00,2,48711,0,0.00,2,2,0,2,45275,50000,1428,49049,0,0,0,0,0.00,0.00,0.00,0.00
2013-09-22 02:40:00,2,49846,0,0.00,2,2,0,2,48462,50000,461,50000,0,0,0,0,0.00,0.00,0.00,0.00
2013-09-22 02:50:00,2,49344,0,0.00,2,2,0,2,43437,50000,1969,50000,0,0,0,0,0.00,0.00,0.00,0.00
2013-09-22 03:00:00,2,50000,0,0.00,2,2,0,2,50000,50000,0,50000,0,0,0,0,0.00,0.00,0.00,0.00
2013-09-22 03:10:00,2,49528,0,0.00,2,2,0,2,45280,50000,1416,50000,0,0,0,0,0.00,0.00,0.00,0.00
2013-09-22 03:20:00,2,50000,0,0.00,2,2,0,2,50000,50000,0,50000,0,0,0,0,0.00,0.00,0.00,0.00
2013-09-22 03:30:00,2,49206,0,0.00,2,2,0,2,42620,50000,2202,50000,0,0,0,0,0.00,0.00,0.00,0.00
2013-09-22 03:40:00,2,49486,0,0.00,2,2,0,2,47119,50000,920,50000,0,0,0,0,0.00,0.00,0.00,0.00
2013-09-22 03:50:00,2,50000,0,0.00,2,2,0,2,50000,50000,0,50000,0,0,0,0,0.00,0.00,0.00,0.00
2013-09-22 04:00:00,2,49838,0,0.00,2,2,0,2,48381,50000,486,50000,0,0,0,0,0.00,0.00,0.00,0.00
2013-09-22 04:10:00,2,49799,0,0.00,2,2,0,2,47992,50000,602,50000,0,0,0,0,0.00,0.00,0.00,0.00
2013-09-22 04:20:00,2,46816,0,0.00,2,2,0,2,37321,50000,3610,47846,0,0,0,0,0.00,0.00,0.00,0.00
2013-09-22 04:30:00,2,20871,0,0.00,2,2,0,2,7199,50000,16995,11894,0,0,0,0,0.00,0.00,0.00,0.00
2013-09-22 04:40:00,2,8378,2,0.00,2,2,0,2,3507,15062,3566,8628,0,10,4,0,0.00,0.00,0.00,0.00
2013-09-22 04:50:00,2,4205,10,0.00,2,2,0,2,3046,5789,851,3936,10,10,0,10,0.00,0.00,0.00,0.00
2013-09-22 05:00:00,2,7404,9,0.00,2,2,0,2,3581,12744,3055,6460,0,10,3,10,0.00,0.00,0.00,0.00
2013-09-22 05:10:00,2,15639,6,0.00,2,2,0,2,4080,39513,12198,9454,0,10,5,10,0.00,0.00,0.00,0.00
2013-09-22 05:20:00,2,19394,7,0.00,2,2,0,2,3290,50000,18857,7324,0,10,5,10,0.00,0.00,0.00,0.00
2013-09-22 05:30:00,2,16565,4,0.00,2,2,0,2,5017,45179,13024,9168,0,10,5,0,0.00,0.00,0.00,0.00
2013-09-22 05:40:00,2,18947,8,0.00,2,2,0,2,5186,47772,15549,9537,0,10,4,10,0.00,0.00,0.00,0.00
2013-09-22 05:50:00,2,13913,5,0.00,2,2,0,2,4667,21807,4619,14892,0,10,5,5,0.00,0.00,0.00,0.00
2013-09-22 06:00:00,2,11890,4,0.00,2,2,0,2,4015,35114,11510,5163,0,10,5,0,0.00,0.00,0.00,0.00
2013-09-22 06:10:00,2,19141,10,0.00,2,2,0,2,6145,42237,10394,19216,10,10,0,10,0.00,0.00,0.00,0.00
2013-09-22 06:20:00,2,34410,1,0.00,2,2,0,2,22369,50000,9130,34532,0,10,3,0,0.00,0.00,0.00,0.00
2013-09-22 06:30:00,2,47555,0,0.00,2,2,0,2,39472,50000,3689,50000,0,0,0,0,0.00,0.00,0.00,0.00
2013-09-22 06:40:00,2,33103,0,0.00,2,2,0,2,2379,50000,15215,35731,0,0,0,0,0.00,0.00,0.00,0.00
2013-09-22 06:50:00,2,2462,37,0.23,2,2,0,2,1748,3516,629,2220,0,61,21,41,0.00,0.65,0.23,0.23
2013-09-22 07:00:00,2,2309,56,0.59,2,2,0,2,1773,2875,325,2318,52,61,4,56,0.10,1.00,0.25,0.57
2013-09-22 07:10:00,2,1696,74,0.66,2,2,0,2,1190,2211,339,1612,67,77,5,77,0.25,1.55,0.49,0.40
2013-09-22 07:20:00,2,1771,67,2.21,2,2,0,2,1354,2334,298,1763,67,67,0,67,0.70,3.55,0.87,2.30
2013-09-22 07:30:00,2,3079,50,0.52,2,2,0,2,1703,5226,1229,2694,10,67,26,67,0.00,2.00,0.61,0.38
2013-09-22 07:40:00,2,19056,10,0.00,2,2,0,2,7853,37190,10410,15535,10,10,0,10,0.00,0.00,0.00,0.00
2013-09-22 07:50:00,2,2555,62,0.14,2,2,0,2,1496,5832,1221,2301,0,77,25,77,0.00,0.30,0.10,0.12
2013-09-22 08:00:00,2,5723,73,0.11,2,2,0,2,1538,14723,3938,3967,67,77,4,74,0.00,0.30,0.11,0.08
2013-09-22 08:10:00,2,18054,34,0.02,2,2,0,2,2668,39659,12807,16416,0,77,32,10,0.00,0.15,0.05,0.00
2013-09-22 08:20:00,2,10518,20,0.01,2,2,0,2,5669,17325,3692,9892,0,77,27,10,0.00,0.05,0.02,0.00
2013-09-22 08:30:00,2,5034,75,0.28,2,2,0,2,1156,11412,3932,3114,71,77,3,77,0.00,0.85,0.30,0.23
2013-09-22 08:40:00,2,1254,73,1.15,2,2,0,2,981,1520,165,1224,67,77,5,77,0.45,2.15,0.45,1.10
2013-09-22 08:50:00,2,1176,67,2.58,2,2,0,2,1121,1283,40,1174,67,67,0,67,1.75,3.55,0.51,2.62
2013-09-22 09:00:00,2,2990,67,1.17,2,2,0,2,939,8812,2689,1528,67,67,0,67,0.00,2.55,0.98,0.88
2013-09-22 09:10:00,2,9405,74,0.02,2,2,0,2,6170,17521,3434,8128,67,77,4,77,0.00,0.05,0.02,0.00
2013-09-22 09:20:00,2,26887,75,0.00,2,2,0,2,13472,45904,9614,25116,71,77,3,77,0.00,0.00,0.00,0.00
2013-09-22 09:30:00,2,8169,75,0.10,2,2,0,2,2427,13279,3335,8594,71,77,3,77,0.00,0.90,0.27,0.00
2013-09-22 09:40:00,2,5101,68,0.40,2,2,0,2,3105,7741,1802,4711,67,77,3,67,0.05,1.00,0.30,0.38
2013-09-22 09:50:00,2,10258,74,0.01,2,2,0,2,8541,11824,1034,10107,67,77,4,74,0.00,0.05,0.02,0.00
2013-09-22 10:00:00,2,10444,68,0.01,2,2,0,2,8495,13585,1395,10056,41,77,14,74,0.00,0.05,0.02,0.00
2013-09-22 10:10:00,2,19017,38,0.00,2,2,0,2,10966,28260,5604,19144,0,77,38,36,0.00,0.00,0.00,0.00
2013-09-22 10:20:00,2,44928,0,0.00,2,2,0,2,28051,50000,7263,49296,0,0,0,0,0.00,0.00,0.00,0.00
2013-09-22 10:30:00,2,50000,0,0.00,2,2,0,2,50000,50000,0,50000,0,0,0,0,0.00,0.00,0.00,0.00
2013-09-22 10:40:00,2,47569,0,0.00,2,2,0,2,40270,50000,3458,49674,0,0,0,0,0.00,0.00,0.00,0.00
2013-09-22 10:50:00,2,20741,33,0.36,2,2,0,2,2130,50000,19930,10030,0,71,30,40,0.00,1.35,0.46,0.12
2013-09-22 11:00:00,2,3038,70,0.56,2,2,0,2,1304,5737,1360,3000,67,71,2,71,0.10,1.50,0.47,0.35
2013-09-22 11:10:00,2,10698,73,0.01,2,2,0,2,6693,17484,3437,9525,67,77,4,71,0.00,0.05,0.02,0.00
2013-09-22 11:20:00,2,39726,8,0.00,2,2,0,2,22082,50000,10070,41018,0,77,23,0,0.00,0.00,0.00,0.00
2013-09-22 11:30:00,2,50000,0,0.00,2,2,0,2,50000,50000,0,50000,0,0,0,0,0.00,0.00,0.00,0.00
2013-09-22 11:40:00,2,50000,0,0.00,2,2,0,2,50000,50000,0,50000,0,0,0,0,0.00,0.00,0.00,0.00
2013-09-22 11:50:00,2,50000,0,0.00,2,2,0,2,50000,50000,0,50000,0,0,0,0,0.00,0.00,0.00,0.00
2013-09-22 12:00:00,2,39009,0,0.00,2,2,0,2,21361,50000,11009,41100,0,0,0,0,0.00,0.00,0.00,0.00
2013-09-22 12:10:00,2,43243,0,0.00,2,2,0,2,36128,50000,5095,42550,0,0,0,0,0.00,0.00,0.00,0.00
2013-09-22 12:20:00,2,4186,65,0.80,2,2,0,2,2289,8060,2148,2848,40,71,12,71,0.15,1.50,0.41,0.80
2013-09-22 12:30:00,2,23721,72,0.03,2,2,0,2,11916,41751,9306,21507,71,77,2,71,0.00,0.15,0.05,0.00
2013-09-22 12:40:00,2,9575,73,1.11,2,2,0,2,1176,33163,11895,2206,71,77,3,71,0.00,3.15,1.08,0.82
2013-09-22 12:50:00,2,3762,71,0.46,2,2,0,2,2442,6340,978,3602,71,71,0,71,0.25,0.80,0.17,0.42
2013-09-22 13:00:00,2,6911,72,0.16,2,2,0,2,4061,10913,2008,6645,71,77,2,71,0.00,0.60,0.22,0.08
2013-09-22 13:10:00,2,2336,71,0.62,2,2,0,2,1810,3155,333,2330,71,71,0,71,0.25,1.05,0.27,0.55
2013-09-22 13:20:00,2,4800,71,0.10,2,2,0,2,3430,6140,981,4838,71,71,0,71,0.05,0.15,0.03,0.10
2013-09-22 13:30:00,2,6094,75,0.07,2,2,0,2,3073,10901,2608,4840,71,77,3,77,0.00,0.15,0.05,0.08
2013-09-22 13:40:00,2,2349,71,1.65,2,2,0,2,816,5765,1653,1770,71,71,0,71,0.00,3.45,1.20,1.58
2013-09-22 13:50:00,2,1903,71,1.26,2,2,0,2,1379,2680,427,1762,71,71,0,71,0.70,1.90,0.37,1.20
2013-09-22 14:00:00,2,2867,71,0.93,2,2,0,2,1533,3943,802,2970,71,71,0,71,0.30,1.60,0.39,0.93
2013-09-22 14:10:00,2,2099,71,0.86,2,2,0,2,1698,2964,381,2054,71,71,0,71,0.60,1.50,0.25,0.78
2013-09-22 14:20:00,2,1818,71,1.77,2,2,0,2,1057,2400,380,1911,71,71,0,71,0.95,2.50,0.45,1.93
2013-09-22 14:30:00,2,4882,71,0.81,2,2,0,2,1558,10200,3058,3634,71,74,1,71,0.15,1.90,0.62,0.62
2013-09-22 14:40:00,2,4870,72,1.13,2,2,0,2,1149,17527,5354,2052,71,74,1,71,0.00,2.70,0.86,1.23
2013-09-22 14:50:00,2,4404,59,0.62,2,2,0,2,1594,6562,1659,4753,41,71,15,71,0.10,1.50,0.43,0.45
2013-09-22 15:00:00,2,2821,62,1.02,2,2,0,2,1613,6353,1341,2462,41,71,14,71,0.45,2.70,0.63,0.88
2013-09-22 15:10:00,2,11123,64,0.20,2,2,0,2,1608,22917,7765,10962,0,77,22,71,0.00,0.75,0.26,0.03
2013-09-22 15:20:00,2,22679,66,0.01,2,2,0,2,5461,43352,11907,23018,0,77,22,71,0.00,0.05,0.02,0.00
2013-09-22 15:30:00,2,13589,75,0.03,2,2,0,2,5822,36079,8561,9294,71,77,3,77,0.00,0.10,0.03,0.00
2013-09-22 15:40:00,2,20946,53,0.00,2,2,0,2,10010,43405,11916,14156,0,77,35,74,0.00,0.00,0.00,0.00
2013-09-22 15:50:00,2,45456,0,0.00,2,2,0,2,37152,50000,4360,46170,0,0,0,0,0.00,0.00,0.00,0.00
2013-09-22 16:00:00,2,49679,0,0.00,2,2,0,2,46788,50000,964,50000,0,0,0,0,0.00,0.00,0.00,0.00
2013-09-22 16:10:00,2,49662,0,0.00,2,2,0,2,47885,50000,702,50000,0,0,0,0,0.00,0.00,0.00,0.00
2013-09-22 16:20:00,2,50000,0,0.00,2,2,0,2,50000,50000,0,50000,0,0,0,0,0.00,0.00,0.00,0.00
2013-09-22 16:30:00,2,34631,4,0.00,2,2,0,2,13225,50000,16439,42544,0,40,12,0,0.00,0.00,0.00,0.00
2013-09-22 16:40:00,2,36659,19,0.00,2,2,0,2,18285,50000,13282,40840,0,71,25,0,0.00,0.00,0.00,0.00
2013-09-22 16:50:00,2,49152,0,0.00,2,2,0,2,46112,50000,1197,49668,0,0,0,0,0.00,0.00,0.00,0.00
2013-09-22 17:00:00,2,50000,0,0.00,2,2,0,2,50000,50000,0,50000,0,0,0,0,0.00,0.00,0.00,0.00
2013-09-22 17:10:00,2,50000,0,0.00,2,2,0,2,50000,50000,0,50000,0,0,0,0,0.00,0.00,0.00,0.00
2013-09-22 17:20:00,2,50000,0,0.00,2,2,0,2,50000,50000,0,50000,0,0,0,0,0.00,0.00,0.00,0.00
2013-09-22 17:30:00,2,27427,60,0.03,2,2,0,2,8517,38800,11078,31301,0,77,24,71,0.00,0.20,0.06,0.00
2013-09-22 17:40:00,2,10221,72,0.15,2,2,0,2,4380,16888,4354,9139,71,77,2,71,0.00,0.70,0.20,0.08
2013-09-22 17:50:00,2,11467,50,0.63,2,2,0,2,1712,30665,9854,8672,0,71,33,71,0.00,2.70,0.89,0.12
2013-09-22 18:00:00,2,2892,71,0.55,2,2,0,2,1993,4059,633,2941,71,71,0,71,0.10,1.30,0.45,0.25
2013-09-22 18:10:00,2,35247,29,0.03,2,2,0,2,7526,50000,16296,42416,0,74,35,0,0.00,0.15,0.05,0.00
2013-09-22 18:20:00,2,50000,0,0.00,2,2,0,2,50000,50000,0,50000,0,0,0,0,0.00,0.00,0.00,0.00
2013-09-22 18:30:00,2,50000,0,0.00,2,2,0,2,50000,50000,0,50000,0,0,0,0,0.00,0.00,0.00,0.00
2013-09-22 18:40:00,2,9487,48,1.27,2,2,0,2,862,50000,14439,2520,0,71,27,56,0.00,2.70,1.19,1.30
2013-09-22 18:50:00,2,5140,65,0.82,2,2,0,2,1529,12796,3995,2685,41,71,12,71,0.05,2.70,0.80,0.68
2013-09-22 19:00:00,2,15369,49,0.68,2,2,0,2,5631,40976,10407,9849,41,67,12,41,0.00,3.00,0.91,0.28
2013-09-22 19:10:00,2,11814,72,0.19,2,2,0,2,2444,25122,6748,11740,67,77,4,71,0.00,1.30,0.39,0.03
2013-09-22 19:20:00,2,37953,32,0.00,2,2,0,2,14429,50000,12660,42242,0,71,34,20,0.00,0.00,0.00,0.00
2013-09-22 19:30:00,2,50000,0,0.00,2,2,0,2,50000,50000,0,50000,0,0,0,0,0.00,0.00,0.00,0.00
2013-09-22 19:40:00,2,41111,0,0.00,2,2,0,2,12800,50000,13425,50000,0,0,0,0,0.00,0.00,0.00,0.00
2013-09-22 19:50:00,2,8814,62,0.04,2,2,0,2,4755,13182,2940,8990,40,77,18,77,0.00,0.15,0.05,0.03
2013-09-22 20:00:00,2,17128,68,0.06,2,2,0,2,3893,37528,9532,16787,0,77,23,77,0.00,0.25,0.09,0.00
2013-09-22 20:10:00,2,8601,64,0.20,2,2,0,2,2630,22428,5514,7746,0,77,22,71,0.00,0.55,0.20,0.10
2013-09-22 20:20:00,2,10154,69,0.06,2,2,0,2,5072,14940,3129,10724,41,77,14,77,0.00,0.20,0.06,0.05
2013-09-22 20:30:00,2,20688,68,0.01,2,2,0,2,9173,45084,11481,14357,0,77,23,77,0.00,0.05,0.02,0.00
2013-09-22 20:40:00,2,12552,44,0.02,2,2,0,2,4332,29318,7923,8234,0,77,36,71,0.00,0.05,0.02,0.00
2013-09-22 20:50:00,2,41491,0,0.00,2,2,0,2,24910,50000,9854,45396,0,0,0,0,0.00,0.00,0.00,0.00
2013-09-22 21:00:00,2,50000,0,0.00,2,2,0,2,50000,50000,0,50000,0,0,0,0,0.00,0.00,0.00,0.00
2013-09-22 21:10:00,2,49692,0,0.00,2,2,0,2,46915,50000,926,50000,0,0,0,0,0.00,0.00,0.00,0.00
2013-09-22 21:20:00,2,50000,0,0.00,2,2,0,2,50000,50000,0,50000,0,0,0,0,0.00,0.00,0.00,0.00
2013-09-22 21:30:00,2,49300,0,0.00,2,2,0,2,42999,50000,2100,50000,0,0,0,0,0.00,0.00,0.00,0.00
2013-09-22 21:40:00,2,48522,0,0.00,2,2,0,2,44330,50000,2024,50000,0,0,0,0,0.00,0.00,0.00,0.00
2013-09-22 21:50:00,2,42397,0,0.00,2,2,0,2,23923,50000,7976,44560,0,0,0,0,0.00,0.00,0.00,0.00
2013-09-22 22:00:00,2,45185,0,0.00,2,2,0,2,29190,50000,7286,49922,0,0,0,0,0.00,0.00,0.00,0.00
2013-09-22 22:10:00,2,28654,8,0.01,2,2,0,2,3165,44615,13988,33794,0,40,16,0,0.00,0.10,0.03,0.00
2013-09-22 22:20:00,2,6227,66,0.53,2,2,0,2,1599,20201,6459,2705,0,77,22,71,0.00,1.50,0.57,0.28
2013-09-22 22:30:00,2,30720,0,0.00,2,2,0,2,13807,50000,13764,24334,0,0,0,0,0.00,0.00,0.00,0.00
2013-09-22 22:40:00,2,43914,0,0.00,2,2,0,2,38682,49992,4250,43262,0,0,0,0,0.00,0.00,0.00,0.00
2013-09-22 22:50:00,2,10603,43,0.36,2,2,0,2,1209,32380,11218,4288,0,71,35,71,0.00,1.55,0.57,0.03
2013-09-22 23:00:00,2,12402,73,0.06,2,2,0,2,3145,30527,9237,9802,71,77,3,71,0.00,0.35,0.11,0.00
2013-09-22 23:10:00,2,21439,75,0.04,2,2,0,2,4997,42882,14403,19618,71,77,3,77,0.00,0.20,0.06,0.00
2013-09-22 23:20:00,2,3754,73,0.42,2,2,0,2,1423,9783,2405,3080,71,77,3,71,0.00,1.55,0.45,0.28
2013-09-22 23:30:00,2,31883,28,0.00,2,2,0,2,8815,50000,14629,33594,0,71,35,0,0.00,0.00,0.00,0.00
2013-09-22 23:40:00,2,43112,36,0.00,2,2,0,2,38897,48858,2655,43395,0,77,36,36,0.00,0.00,0.00,0.00
2013-09-22 23:50:00,2,44702,0,0.00,2,2,0,2,29508,50000,7497,48098,0,0,0,0,0.00,0.00,0.00,0.00
